Voltar ao catálogo

STARLINK-35082

AtivoComunicaçõesSSO
NORAD 65392·PAYLOAD·🇺🇸 United States

Lançado Aug 30, 2025 de Vandenberg Space Force Base

Loading…

Próximas Passagens (próximas 24 horas)

TLE

AtualizadoSource: CelesTrak SupGP

Época: Sep 14, 2026, 20:50 UTC

1 65392C 25191P   26257.86854167 -.00009363  00000+0 -29079-3 0  2579
2 65392  97.2844 123.9270 0001757  90.2597 216.8398 15.33428063    10

Acompanhe STARLINK-35082 em tempo real com AllMySat

Download on the App Store